Hourly Data Report for March 18, 2004

TORONTO CITY
ONTARIO

43°40'00.000" N
79°24'00.000" W
112.50 m
6158355
71508
XTO

Download Data

Hourly Data (March 2004)
Hourly Data Report for March 18, 2004
TIME
LST
Temp Definition
°C
Dew Point Definition
°C
Rel Hum Definition
%
Precip. Amount Definition
mm

Wind Dir Definition
10's deg

Wind Spd Definition
km/h
Visibility Definition
km
Stn Press Definition
kPa
Hmdx Definition


Wind Chill Definition


Weather Definition


00:00 -3.2 -5.3 85   LegendMM LegendMM LegendMM 100.31     LegendNANA
01:00 -3.3 -5.5 85   LegendMM LegendMM LegendMM 100.32     LegendNANA
02:00 -3.3 -6.2 80   LegendMM LegendMM LegendMM 100.33     LegendNANA
03:00 -3.6 -6.2 82   LegendMM LegendMM LegendMM 100.34     LegendNANA
04:00 -3.7 -6.3 82   LegendMM LegendMM LegendMM 100.34     LegendNANA
05:00 -4.1 -6.3 85   LegendMM LegendMM LegendMM 100.39     LegendNANA
06:00 -3.4 -6.4 80   LegendMM LegendMM LegendMM 100.43     LegendNANA
07:00 -3.2 -6.2 80   LegendMM LegendMM LegendMM 100.47     LegendNANA
08:00 -2.7 -6.3 76   LegendMM LegendMM LegendMM 100.51     LegendNANA
09:00 -2.6 -6.2 76   LegendMM LegendMM LegendMM 100.55     LegendNANA
10:00 -1.8 -6.3 71   LegendMM LegendMM LegendMM 100.57     LegendNANA
11:00 -1.2 -6.2 69   LegendMM LegendMM LegendMM 100.62     LegendNANA
12:00 0.4 -6.3 61   LegendMM LegendMM LegendMM 100.64     LegendNANA
13:00 0.6 -4.9 67   LegendMM LegendMM LegendMM 100.63     LegendNANA
14:00 0.5 -6.4 60   LegendMM LegendMM LegendMM 100.59     LegendNANA
15:00 -0.3 -6.4 63   LegendMM LegendMM LegendMM 100.60     LegendNANA
16:00 0.4 -6.3 61   LegendMM LegendMM LegendMM 100.58     LegendNANA
17:00 0.0 -6.5 62   LegendMM LegendMM LegendMM 100.57     LegendNANA
18:00 -0.1 -6.4 62   LegendMM LegendMM LegendMM 100.62     LegendNANA
19:00 -0.6 -6.4 65   LegendMM LegendMM LegendMM 100.69     LegendNANA
20:00 -0.6 -6.7 63   LegendMM LegendMM LegendMM 100.77     LegendNANA
21:00 -0.5 -6.4 64   LegendMM LegendMM LegendMM 100.80     LegendNANA
22:00 -0.6 -6.7 63   LegendMM LegendMM LegendMM 100.80     LegendNANA
23:00 -0.5 -6.4 64   LegendMM LegendMM LegendMM 100.81     LegendNANA

Notes on Data Quality.

Legend

  • E = Estimated
  • M = Missing
  • NA = Not Available*
  • [empty] = Indicates an unobserved value
Date modified: